Location: ???? ?????
(30.0052°N, 31.2891°E)
Time: 05:24:31
(UTC+00:00)

Iridium 16 - Pass Details

Date: 04 February 2023
Orbit: 766 x 768 km, 86.4° (Epoch: 23 March)

Event Time Altitude Azimuth Distance (km) Brightness Sun altitude
Rises 02:13:22 0° 158° (SSE) 3,219 9.0 -32.8°
Reaches altitude 10° 02:15:52 10° 150° (SSE) 2,297 8.3 -32.2°
Maximum altitude 02:20:28 34° 86° (E) 1,242 7.0 -31.2°
Drops below altitude 10° 02:25:05 10° 22° (NNE) 2,310 8.2 -30.2°
Sets 02:27:36 0° 14° (NNE) 3,240 8.9 -29.7°
